Wind_Speed
20 19 17 17 16 15 15 14 13 12 11 9 9 8 7 6 5 4 4 4 3 3 2 2 2 2 2 1 1 1 2 4 6 7 8 9 10 11 12 12 13 14 15 15
19 18 17 16 15 14 14 13 12 12 11 10 9 7 6 6 5 4 3 4 4 3 3 3 3 2 2 1 1 2 3 5 6 7 8 9 11 11 13 13 14 15 15 16
17 17 16 15 14 14 12 13 12 12 11 10 8 6 6 5 4 3 3 4 4 3 3 3 3 3 3 1 1 2 3 5 6 7 9 10 11 12 13 14 15 16 16 16
18 17 16 15 14 14 12 12 12 11 10 8 7 5 5 5 4 4 3 3 3 4 3 3 3 3 2 1 1 2 4 5 7 8 9 10 11 12 13 15 15 16 17 17
16 16 15 14 14 14 13 12 12 11 9 8 7 6 5 5 4 4 3 3 4 4 4 3 3 3 2 2 2 3 4 6 7 8 9 10 12 13 14 15 16 16 17 18
15 15 15 15 14 15 14 13 12 11 9 8 7 6 5 4 3 3 3 3 3 3 3 3 3 2 2 2 3 3 5 6 7 8 10 11 12 14 15 15 16 16 17 18
15 14 14 14 14 14 14 13 13 11 10 8 6 5 5 4 3 2 2 2 2 2 3 3 2 2 3 3 3 5 6 7 8 9 11 12 14 15 16 17 17 17 18 19
13 13 13 12 12 12 12 11 11 10 9 7 6 4 5 4 3 2 2 2 2 3 3 3 3 3 3 4 5 6 7 8 9 11 12 14 15 16 17 17 18 19 19 20
12 13 13 12 12 12 11 11 10 10 9 8 6 4 4 4 3 2 2 3 3 3 4 4 4 4 5 5 6 7 8 9 10 11 13 15 16 17 17 18 19 19 20 20
11 11 12 12 12 12 11 10 10 9 9 9 6 4 3 2 2 3 3 4 4 4 5 5 6 6 6 7 7 9 10 11 12 13 15 16 17 18 18 19 20 21 21 22
11 11 11 11 10 10 11 11 10 9 9 9 7 4 4 3 4 4 5 5 5 5 5 7 7 7 8 8 9 10 11 12 13 15 16 17 18 19 20 21 22 23 24 24
9 10 10 10 10 10 10 11 10 10 9 8 7 5 6 5 5 5 5 6 6 6 6 7 8 9 9 10 11 11 12 13 15 16 18 19 19 20 22 23 24 25 25 26
8 8 9 9 9 10 10 10 10 10 10 9 9 7 7 7 6 6 6 7 8 8 9 9 10 10 11 12 13 14 14 16 17 18 19 20 21 22 23 25 26 27 27 27
7 8 8 8 8 9 9 10 10 10 10 9 10 9 8 9 8 8 8 8 9 10 11 11 12 13 13 14 15 16 17 18 19 20 21 22 23 24 25 27 28 28 29 29
9 9 9 9 9 10 10 10 10 10 9 9 10 10 9 9 9 9 9 9 11 12 13 13 14 14 15 16 17 18 19 21 21 22 23 24 25 26 28 29 30 30 31 30
10 10 10 10 10 10 11 11 11 11 11 10 10 9 9 10 10 10 10 11 12 13 14 15 15 16 17 18 19 20 22 23 24 24 25 26 27 29 30 30 32 32 32 32
12 12 12 12 12 12 11 11 12 11 11 11 10 10 10 11 11 11 12 13 13 14 15 16 17 18 19 20 22 23 24 25 26 27 28 29 30 31 32 32 33 34 34 34
14 14 14 14 14 14 11 13 13 12 12 12 11 11 11 12 12 13 14 15 16 17 18 19 20 21 22 23 25 26 26 27 28 29 30 32 33 34 34 35 35 36 35 35
15 15 16 16 16 14 13 13 14 14 13 13 12 12 13 13 14 14 16 17 18 19 20 21 22 23 25 26 27 28 29 29 30 31 32 33 34 35 36 37 37 37 36 36
16 17 17 17 17 15 13 14 15 15 14 13 14 14 15 15 16 17 18 19 20 21 22 24 25 26 27 28 29 30 31 32 32 33 34 35 36 37 38 38 38 37 38 38
18 18 18 18 18 16 15 16 16 17 16 16 17 17 17 18 19 19 21 22 23 24 25 26 27 28 29 30 30 31 33 34 35 35 36 37 38 39 39 39 39 39 40 41
20 20 20 20 20 18 18 18 19 19 19 19 19 20 20 21 21 22 23 24 25 26 28 29 29 30 31 32 33 33 34 35 36 37 38 39 40 41 41 41 41 41 42 43
22 22 22 22 22 21 21 21 21 21 22 22 23 23 24 24 25 26 26 27 28 29 30 31 31 32 33 34 35 36 36 37 38 39 40 41 41 42 43 43 43 43 43 44
24 24 25 25 25 24 25 25 25 25 25 26 26 27 27 28 29 29 30 30 31 31 32 33 34 35 35 36 37 38 38 39 40 42 42 43 43 44 44 45 45 45 45 45
26 27 28 28 27 28 28 28 29 29 29 30 30 31 31 31 32 32 33 33 34 34 35 36 36 37 38 39 39 40 41 41 42 43 43 44 45 45 46 47 47 47 47 47
28 29 30 30 30 31 31 31 31 31 32 32 33 33 34 34 34 35 35 35 35 36 37 38 39 40 41 41 42 42 42 43 44 44 45 46 47 47 48 48 48 49 49 49
Wind_Direction
169 172 175 177 180 184 184 180 175 174 175 182 185 190 196 197 193 195 205 208 202 206 206 189 180 179 177 184 241 307 343 349 346 347 344 343 343 342 341 340 340 340 339 338
165 169 172 176 179 180 177 176 176 175 172 177 180 184 188 189 185 179 187 184 182 185 193 186 179 181 180 191 264 315 340 341 340 343 344 345 344 342 340 340 339 338 337 338
162 168 168 170 172 176 170 170 170 168 170 172 172 175 177 177 178 175 179 180 176 178 175 173 181 173 170 179 245 330 345 341 339 342 344 344 344 343 342 340 339 337 336 336
162 167 169 169 169 169 168 169 172 172 174 170 174 177 185 185 179 180 182 177 167 167 170 180 183 183 186 199 273 331 339 337 339 343 344 343 342 342 341 340 339 338 338 337
160 162 165 166 167 166 166 168 171 177 180 180 181 175 172 181 180 181 183 177 162 159 168 182 186 197 215 250 285 310 324 331 336 339 339 339 338 338 338 337 337 338 338 337
158 158 161 160 164 166 169 172 175 182 183 180 177 176 163 165 170 179 182 177 169 173 186 194 201 218 239 264 290 310 320 325 329 331 334 335 335 335 335 335 335 336 336 335
157 157 160 163 167 170 174 181 186 190 189 183 180 166 151 155 161 177 184 193 196 210 218 219 224 231 248 272 302 311 314 319 325 330 333 334 334 334 334 334 334 334 332 332
154 157 162 167 171 175 179 183 194 199 195 187 187 178 169 171 166 170 187 211 230 235 237 243 252 259 275 298 305 309 312 317 322 325 326 327 328 329 330 331 331 331 330 330
154 156 160 167 172 180 180 184 187 196 202 203 198 181 173 181 195 210 217 228 248 251 249 252 263 268 278 290 297 304 309 312 315 318 320 322 322 325 326 327 327 327 327 327
149 154 158 161 169 178 185 190 199 209 212 212 209 193 170 179 212 237 250 252 258 260 260 263 268 272 279 287 295 302 305 307 310 312 315 317 319 320 321 323 324 325 325 324
149 152 160 167 174 185 196 203 207 214 216 216 216 214 215 219 233 247 259 262 260 259 261 267 271 274 279 286 293 298 301 304 308 311 314 315 317 318 319 320 321 322 322 322
161 160 168 175 182 193 202 213 217 222 227 230 232 225 233 235 242 251 258 262 263 266 269 273 277 279 282 287 293 296 299 303 307 310 313 314 315 316 317 318 318 318 318 318
174 177 184 191 196 202 208 216 224 228 234 241 250 250 246 249 253 257 262 266 269 270 273 276 281 283 286 290 293 295 298 302 305 307 310 311 313 315 316 316 316 316 315 315
205 204 201 201 206 213 218 222 229 233 236 243 251 256 254 258 261 264 268 269 272 274 275 276 280 282 286 289 291 294 298 301 303 305 306 308 311 312 314 314 315 315 314 312
224 221 216 215 219 219 219 223 231 236 240 246 252 258 261 262 265 268 269 271 273 275 276 277 280 283 286 288 291 295 298 300 302 304 305 306 308 310 312 313 314 314 313 312
230 231 231 233 233 233 230 231 235 239 243 249 253 256 258 263 266 270 272 275 275 276 278 280 282 284 287 290 293 296 298 299 301 302 303 305 307 309 310 311 312 312 311 311
236 239 241 240 242 243 240 244 247 251 254 258 260 262 265 267 268 271 274 276 277 280 282 284 285 286 289 291 293 295 297 298 299 301 302 303 305 307 309 311 311 311 309 308
241 245 247 245 246 247 243 245 249 252 256 260 261 261 264 268 270 272 275 277 280 284 285 287 287 288 290 291 293 295 296 297 299 301 303 304 305 306 308 310 310 310 308 307
244 247 250 250 250 248 245 248 251 252 252 257 261 263 267 270 273 276 279 281 284 286 288 289 290 290 291 292 294 295 296 298 300 302 303 304 305 306 307 308 309 308 306 305
248 250 252 252 252 253 250 252 255 257 258 260 264 268 271 275 277 280 283 284 285 286 289 291 292 292 292 293 294 296 297 299 300 301 302 304 305 306 307 307 307 306 306 305
250 252 253 254 255 255 255 255 258 261 264 264 267 270 273 276 278 280 283 284 285 286 289 290 292 292 292 293 294 296 297 298 300 301 301 303 304 305 306 306 306 305 305 306
251 253 254 256 258 259 259 260 261 263 266 268 270 273 275 277 279 281 284 286 287 288 289 291 292 293 294 294 294 295 296 297 299 300 301 302 303 304 305 305 305 304 305 305
255 256 256 257 258 260 262 263 264 266 268 271 274 276 277 279 281 283 285 286 287 288 290 291 292 293 294 295 294 295 296 297 298 299 300 301 302 303 304 305 304 304 304 304
259 259 260 260 261 261 262 264 267 268 270 272 273 276 278 280 282 283 284 285 287 288 290 291 292 293 294 294 294 295 296 296 297 299 300 300 301 302 303 303 303 303 303 304
259 261 262 262 263 263 264 266 268 270 271 272 274 276 279 280 281 282 283 285 287 288 289 290 291 291 292 293 294 295 296 296 297 298 299 300 300 301 302 303 303 302 303 303
259 260 261 263 264 265 267 269 270 271 272 274 276 278 279 280 280 281 282 284 286 287 288 288 289 290 292 293 294 295 295 295 296 298 298 300 300 300 301 302 302 302 302 303
Height
5826 5831 5834 5838 5842 5845 5847 5850 5853 5855 5857 5859 5860 5861 5863 5863 5864 5865 5866 5866 5867 5867 5868 5868 5869 5869 5870 5870 5870 5870 5869 5868 5867 5866 5864 5862 5860 5858 5856 5854 5852 5849 5846 5844
5829 5832 5835 5838 5841 5844 5847 5850 5852 5855 5856 5858 5859 5860 5861 5862 5863 5864 5864 5865 5866 5866 5867 5867 5868 5868 5868 5869 5869 5869 5868 5867 5866 5865 5863 5861 5859 5857 5855 5853 5850 5847 5845 5842
5830 5834 5836 5839 5842 5845 5847 5850 5852 5854 5856 5857 5858 5859 5860 5861 5862 5862 5863 5864 5865 5865 5866 5866 5867 5867 5868 5868 5868 5868 5867 5866 5865 5864 5862 5860 5858 5856 5854 5851 5849 5846 5843 5840
5831 5834 5837 5839 5842 5845 5847 5850 5852 5854 5855 5856 5859 5859 5860 5860 5861 5861 5862 5863 5864 5864 5865 5865 5866 5866 5866 5867 5867 5866 5866 5865 5864 5862 5860 5859 5857 5855 5852 5850 5847 5844 5841 5838
5833 5835 5838 5840 5843 5845 5848 5849 5852 5853 5854 5856 5857 5858 5860 5859 5860 5861 5861 5862 5863 5863 5864 5864 5864 5865 5865 5865 5865 5865 5864 5864 5862 5861 5859 5857 5855 5853 5851 5848 5845 5842 5839 5836
5834 5836 5839 5841 5843 5846 5848 5850 5851 5852 5854 5856 5856 5858 5859 5858 5859 5860 5861 5861 5862 5862 5863 5863 5863 5864 5864 5864 5864 5863 5863 5862 5861 5859 5857 5856 5854 5851 5849 5846 5843 5840 5837 5834
5835 5837 5840 5842 5844 5846 5848 5850 5852 5852 5853 5855 5855 5856 5858 5858 5858 5859 5860 5860 5861 5861 5861 5862 5862 5862 5862 5862 5862 5862 5861 5860 5859 5857 5855 5853 5851 5849 5846 5844 5841 5838 5835 5832
5836 5839 5840 5842 5845 5846 5847 5850 5852 5853 5853 5854 5854 5855 5857 5857 5857 5858 5859 5859 5860 5860 5860 5860 5861 5861 5860 5860 5860 5860 5859 5858 5856 5855 5853 5851 5849 5847 5844 5841 5838 5835 5832 5829
5837 5839 5841 5843 5844 5847 5848 5849 5851 5852 5852 5853 5853 5854 5855 5855 5856 5857 5858 5858 5859 5859 5859 5859 5859 5859 5859 5859 5858 5858 5857 5856 5854 5853 5851 5849 5847 5844 5841 5838 5835 5832 5829 5825
5838 5840 5841 5842 5844 5846 5848 5849 5850 5851 5851 5851 5853 5853 5854 5854 5855 5855 5856 5857 5857 5857 5857 5857 5857 5857 5857 5857 5856 5855 5854 5853 5852 5850 5848 5846 5843 5841 5838 5835 5832 5828 5825 5821
5839 5841 5842 5843 5844 5846 5848 5849 5849 5850 5850 5851 5852 5855 5854 5854 5854 5854 5855 5855 5855 5856 5856 5855 5855 5855 5855 5854 5854 5853 5852 5850 5849 5847 5845 5842 5840 5837 5834 5831 5827 5824 5820 5816
5840 5841 5842 5844 5844 5845 5846 5847 5848 5849 5850 5850 5851 5856 5853 5853 5853 5853 5853 5853 5853 5853 5853 5853 5853 5853 5852 5851 5851 5850 5848 5847 5845 5843 5841 5838 5836 5833 5830 5826 5823 5819 5815 5811
5840 5841 5842 5843 5846 5845 5845 5846 5847 5848 5848 5848 5849 5854 5851 5851 5851 5851 5851 5851 5851 5851 5851 5851 5850 5850 5849 5848 5847 5846 5845 5843 5841 5839 5836 5834 5831 5828 5825 5821 5817 5813 5809 5805
5840 5841 5842 5843 5843 5843 5844 5845 5845 5846 5846 5847 5847 5848 5849 5849 5849 5849 5849 5848 5848 5848 5848 5847 5847 5846 5846 5845 5843 5842 5841 5839 5837 5834 5832 5829 5826 5823 5819 5815 5811 5807 5803 5799
5838 5839 5840 5841 5841 5842 5842 5843 5843 5844 5844 5845 5845 5845 5846 5846 5846 5846 5845 5845 5845 5844 5844 5844 5843 5843 5842 5840 5839 5837 5836 5834 5831 5829 5826 5823 5820 5817 5813 5809 5805 5801 5796 5792
5836 5837 5838 5838 5839 5839 5840 5841 5841 5841 5842 5842 5842 5843 5843 5843 5842 5842 5842 5842 5841 5841 5840 5840 5839 5838 5837 5836 5834 5832 5830 5828 5825 5823 5820 5817 5814 5810 5806 5802 5798 5793 5789 5784
5834 5835 5835 5836 5836 5836 5838 5838 5838 5838 5839 5839 5839 5840 5839 5839 5839 5839 5839 5838 5838 5837 5836 5835 5834 5833 5832 5831 5829 5827 5824 5822 5819 5816 5813 5809 5806 5803 5799 5794 5790 5785 5781 5776
5831 5831 5832 5833 5834 5834 5837 5835 5835 5835 5836 5836 5836 5836 5836 5836 5836 5835 5835 5834 5833 5832 5831 5830 5829 5828 5826 5824 5822 5820 5817 5814 5811 5808 5805 5802 5798 5794 5790 5786 5781 5777 5772 5768
5828 5828 5828 5829 5829 5830 5832 5832 5831 5832 5832 5832 5832 5832 5832 5832 5831 5831 5830 5829 5828 5827 5826 5824 5823 5822 5820 5817 5815 5812 5809 5806 5803 5800 5796 5793 5789 5785 5781 5777 5772 5768 5764 5759
5823 5824 5825 5825 5824 5826 5829 5828 5827 5828 5828 5829 5828 5828 5828 5827 5827 5827 5825 5824 5823 5821 5820 5818 5817 5814 5812 5810 5807 5804 5801 5798 5795 5791 5788 5784 5780 5776 5772 5767 5763 5758 5754 5750
5819 5819 5819 5819 5819 5821 5823 5822 5822 5824 5825 5824 5823 5823 5823 5822 5822 5821 5820 5818 5816 5815 5813 5811 5809 5807 5804 5801 5799 5796 5793 5790 5786 5782 5779 5775 5771 5766 5762 5757 5753 5748 5744 5740
5813 5814 5814 5814 5814 5818 5817 5817 5817 5818 5817 5817 5817 5817 5817 5816 5815 5814 5813 5811 5809 5808 5806 5803 5801 5799 5796 5793 5790 5787 5784 5781 5777 5773 5769 5765 5761 5756 5752 5747 5742 5737 5733 5728
5807 5808 5808 5809 5811 5811 5810 5810 5811 5811 5811 5810 5810 5810 5809 5808 5807 5806 5805 5803 5801 5799 5797 5795 5792 5789 5786 5784 5781 5778 5774 5771 5767 5763 5759 5755 5751 5746 5741 5736 5731 5726 5721 5717
5800 5801 5801 5802 5803 5803 5803 5803 5803 5803 5803 5803 5802 5802 5801 5800 5799 5798 5796 5795 5793 5790 5788 5785 5783 5780 5777 5774 5771 5767 5764 5760 5757 5753 5748 5744 5740 5735 5730 5725 5719 5714 5709 5704
5793 5793 5793 5793 5794 5794 5795 5795 5795 5795 5794 5794 5793 5793 5792 5791 5790 5788 5787 5785 5783 5780 5778 5775 5773 5770 5767 5763 5760 5757 5753 5750 5746 5741 5737 5732 5728 5723 5718 5713 5707 5702 5697 5691
5785 5785 5785 5785 5785 5785 5786 5786 5786 5786 5785 5785 5784 5783 5782 5781 5780 5778 5776 5774 5772 5770 5767 5765 5762 5759 5756 5752 5749 5746 5742 5738 5734 5729 5725 5720 5715 5710 5705 5700 5695 5689 5684 5678